TimePDT,TemperatureF,Dew PointF,Humidity,Sea Level PressureIn,VisibilityMPH,Wind Direction,Wind SpeedMPH,Gust SpeedMPH,PrecipitationIn,Events,Conditions,WindDirDegrees,DateUTC
12:53 AM,66.9,24.1,20,29.87,10.0,ENE,5.8,-,N/A,,Clear,70,2013-08-18 07:53:00
1:53 AM,60.1,19.9,21,29.88,10.0,Calm,Calm,-,N/A,,Clear,0,2013-08-18 08:53:00
2:53 AM,57.0,25.0,29,29.88,10.0,SSE,5.8,-,N/A,,Clear,160,2013-08-18 09:53:00
3:53 AM,55.0,21.9,28,29.89,10.0,WNW,6.9,-,N/A,,Clear,300,2013-08-18 10:53:00
4:53 AM,66.0,17.1,15,29.88,10.0,NE,8.1,-,N/A,,Clear,40,2013-08-18 11:53:00
5:53 AM,54.0,23.0,30,29.91,10.0,Calm,Calm,-,N/A,,Clear,0,2013-08-18 12:53:00
6:53 AM,55.0,28.0,35,29.94,10.0,WSW,4.6,-,N/A,,Clear,240,2013-08-18 13:53:00
7:53 AM,70.0,32.0,25,29.94,10.0,Calm,Calm,-,N/A,,Clear,0,2013-08-18 14:53:00
8:53 AM,80.1,36.0,20,29.94,10.0,Variable,6.9,-,N/A,,Clear,0,2013-08-18 15:53:00
9:53 AM,84.9,37.0,18,29.94,10.0,NNE,9.2,-,N/A,,Clear,20,2013-08-18 16:53:00
10:53 AM,90.0,36.0,15,29.94,10.0,NE,10.4,-,N/A,,Clear,50,2013-08-18 17:53:00
11:53 AM,91.9,30.9,11,29.93,10.0,East,3.5,-,N/A,,Clear,100,2013-08-18 18:53:00
12:53 PM,93.9,32.0,11,29.93,10.0,South,6.9,-,N/A,,Clear,180,2013-08-18 19:53:00
1:53 PM,97.0,33.1,11,29.91,10.0,West,11.5,-,N/A,,Clear,260,2013-08-18 20:53:00
2:53 PM,98.1,32.0,10,29.88,10.0,NNW,6.9,-,N/A,,Clear,340,2013-08-18 21:53:00
3:53 PM,99.0,30.9,9,29.86,10.0,Variable,3.5,-,N/A,,Clear,0,2013-08-18 22:53:00
4:53 PM,98.1,30.0,9,29.83,10.0,North,-9999.0,-,N/A,,Clear,0,2013-08-18 23:53:00
5:53 PM,99.0,28.0,8,29.83,10.0,North,-9999.0,-,N/A,,Clear,0,2013-08-19 00:53:00
6:07 PM,96.1,35.1,12,29.96,2.0,SE,15.0,-,N/A,,Haze,130,2013-08-19 01:07:00
6:21 PM,95.0,34.0,12,29.96,3.0,SE,10.4,-,N/A,,Haze,130,2013-08-19 01:21:00
6:40 PM,93.0,37.0,14,29.96,2.5,SE,13.8,-,N/A,,Haze,140,2013-08-19 01:40:00
6:53 PM,93.0,37.0,14,29.85,2.0,ESE,11.5,-,N/A,,Haze,120,2013-08-19 01:53:00
7:16 PM,91.0,36.0,14,29.97,3.0,SE,12.7,-,N/A,,Haze,130,2013-08-19 02:16:00
7:51 PM,87.8,37.4,17,29.99,2.5,SE,9.2,-,N/A,,Haze,130,2013-08-19 02:51:00
7:52 PM,88.0,37.0,16,29.86,2.5,SE,9.2,-,N/A,,Haze,130,2013-08-19 02:52:00
8:11 PM,84.9,37.9,19,30.00,3.0,ESE,5.8,-,N/A,,Haze,120,2013-08-19 03:11:00
8:53 PM,82.0,36.0,19,29.89,4.0,WNW,5.8,-,N/A,,Haze,300,2013-08-19 03:53:00
9:53 PM,81.0,36.0,20,29.89,6.0,West,9.2,-,N/A,,Haze,280,2013-08-19 04:53:00
10:53 PM,80.1,37.0,21,29.89,6.0,SW,10.4,-,N/A,,Haze,230,2013-08-19 05:53:00
11:53 PM,80.1,39.0,23,29.92,6.0,SSE,12.7,-,N/A,,Haze,160,2013-08-19 06:53:00